CAPE
0 0 0 0 0 0 0 0 0 0 0 0 0 0 0 0 0 0 0 0 0 0 0 1022 1676 1745 1450 1372 1363 1399 1523 1656 1798 1446 1364 1229 1086 988 1006 983 880 756 624 918 667 249 361 477 285
0 0 0 0 0 0 0 0 0 0 0 0 0 0 0 0 0 0 0 0 0 0 17 683 1486 1482 1316 1193 1197 1279 1376 1387 1328 1324 1240 1078 1033 917 850 832 821 757 879 843 786 522 464 277 140
0 0 0 0 0 0 0 0 0 0 0 0 0 0 0 0 0 0 0 0 0 0 50 602 1369 1113 1034 939 907 1058 1058 1060 1050 1045 1033 966 877 791 703 597 578 470 399 464 577 327 149 79 95
0 0 0 0 0 0 0 0 0 0 0 0 0 0 0 0 0 0 0 0 0 0 33 660 969 830 730 793 756 786 768 766 700 606 558 518 458 385 264 214 138 196 233 258 199 134 43 60 82
0 0 0 0 0 0 0 0 0 0 0 0 0 0 0 0 0 0 0 0 0 0 10 339 722 698 670 573 471 504 433 397 334 259 180 145 115 80 59 45 31 38 54 40 30 28 13 21 38
0 0 0 0 0 0 0 0 0 0 0 0 0 0 0 0 0 0 0 0 0 0 3 137 495 511 437 390 433 426 342 227 123 50 39 31 28 24 20 15 14 15 14 11 7 5 3 4 1
0 0 0 0 0 0 0 0 0 0 0 0 0 0 0 0 0 0 0 0 0 0 1 2 36 116 218 275 241 178 127 57 39 32 26 20 15 15 15 12 10 7 13 5 6 3 0 0 0
0 0 0 0 0 0 0 0 0 0 0 0 0 0 0 0 0 0 0 0 0 0 0 1 0 0 3 24 94 60 29 20 15 11 6 4 3 8 3 3 4 2 2 2 2 0 0 0 0
0 0 0 0 0 0 0 0 0 0 0 0 0 0 0 0 0 0 0 0 0 0 1 0 0 0 0 0 3 6 8 7 2 0 0 0 0 0 0 0 0 0 0 0 0 0 0 0 0
0 0 0 0 0 0 0 0 0 0 0 0 0 0 0 0 0 0 0 0 0 1 1 0 0 0 0 0 0 0 0 0 0 0 0 0 0 0 0 0 0 0 0 0 0 0 0 0 0
0 0 0 0 0 0 0 0 0 0 0 0 0 0 0 0 0 0 0 0 0 0 0 0 0 0 0 0 0 0 0 0 0 0 0 0 0 0 0 0 0 0 0 0 0 0 0 0 0
0 0 0 0 0 0 0 0 0 0 0 0 0 0 0 0 0 0 0 0 0 0 0 0 0 0 0 0 0 0 0 0 0 0 0 0 0 0 0 0 0 0 0 0 0 0 0 0 0
0 0 0 0 0 0 0 0 0 0 0 0 0 0 0 0 0 0 0 0 0 0 0 0 0 0 0 0 0 0 0 0 0 0 0 0 0 0 0 0 0 0 0 0 0 0 0 0 0
0 0 0 0 0 0 0 0 0 0 0 0 0 0 0 0 0 0 0 0 0 0 0 0 0 0 0 0 0 0 0 0 0 0 0 0 0 0 0 0 0 0 0 0 0 0 0 0 0
0 0 0 0 0 0 0 0 0 0 0 0 0 0 0 0 0 0 0 0 0 0 0 0 0 0 0 0 0 0 0 0 0 0 0 0 0 0 0 0 0 0 0 0 0 0 0 0 0
0 0 0 0 0 0 0 0 0 0 0 0 0 0 0 0 0 0 0 0 0 0 0 0 0 0 0 0 0 0 0 0 0 0 0 0 0 0 0 0 0 0 0 0 0 0 0 0 0
0 0 0 0 0 0 0 0 0 0 0 0 0 0 0 0 0 0 0 0 0 0 0 0 0 0 0 0 0 0 0 0 0 0 0 0 0 0 0 0 0 0 0 0 0 0 0 0 0
0 0 0 0 0 0 0 0 0 0 0 0 0 0 0 0 0 0 0 0 0 0 0 0 0 0 0 0 0 0 0 0 0 0 0 0 0 0 0 0 0 0 0 0 0 0 0 0 0
0 0 0 0 0 0 0 0 0 0 0 0 0 0 0 0 0 0 0 0 0 0 0 0 0 0 0 0 0 0 0 0 0 0 0 0 0 0 0 0 0 0 0 0 0 0 0 0 0
0 0 0 0 0 0 0 0 0 0 0 0 0 0 0 0 0 0 0 0 0 0 0 0 0 0 0 0 0 0 0 0 0 0 0 0 0 0 0 0 0 0 0 0 0 0 0 0 0
0 0 0 0 0 0 0 0 0 0 0 0 0 0 0 0 0 0 0 0 0 0 0 0 0 0 0 0 0 0 0 0 0 0 0 0 0 0 0 0 0 0 0 0 0 0 0 0 0
0 0 0 0 0 0 0 0 0 0 0 0 0 0 0 0 0 0 0 0 0 0 0 0 0 0 0 0 0 0 0 0 0 0 0 0 0 0 0 0 0 0 0 0 0 0 0 0 0
0 0 0 0 0 0 0 0 0 0 0 0 0 0 0 0 0 0 0 0 0 0 0 0 0 0 0 0 0 0 0 0 0 0 0 0 0 0 0 0 0 0 0 0 0 0 0 0 0
0 0 0 0 0 0 0 0 0 0 0 0 0 0 0 0 0 0 0 0 0 0 0 0 0 0 0 0 0 0 0 0 0 0 0 0 0 0 0 0 0 0 0 0 0 0 0 0 0
0 0 0 0 0 0 0 0 0 0 0 0 0 0 0 0 0 0 0 0 0 0 0 0 0 0 0 0 0 0 0 0 0 0 0 0 0 0 0 0 0 0 0 0 0 0 0 0 0
0 0 0 0 0 0 0 0 0 0 0 0 0 0 0 0 0 0 0 0 0 0 0 0 0 0 0 0 0 0 0 0 0 0 0 0 0 0 0 0 0 0 0 0 0 0 0 0 0
0 0 0 0 0 0 0 0 0 0 0 0 0 0 0 0 0 0 0 0 0 0 0 0 0 0 0 0 0 0 0 0 0 0 0 0 0 0 0 0 0 0 0 0 0 0 0 0 0
0 0 0 0 0 0 0 0 0 0 0 0 0 0 0 0 0 0 0 0 0 0 0 0 0 0 0 0 0 0 0 0 0 0 0 0 0 0 0 0 0 0 0 0 0 0 0 0 0
1 2 0 0 0 0 0 0 0 0 0 0 0 0 0 0 0 0 0 0 0 0 0 0 0 0 0 0 0 0 0 0 0 0 0 0 0 0 0 0 0 0 0 0 0 0 0 0 0
0 0 0 0 0 0 0 0 0 0 0 0 0 0 0 0 0 0 0 0 0 0 0 0 0 0 0 0 0 0 0 0 0 0 0 0 0 0 0 0 0 0 0 0 0 0 0 0 0
CIN
0 0 0 0 0 0 0 0 0 0 0 0 0 0 0 0 0 0 0 0 0 0 0 -17 0 0 0 0 -1 0 0 0 0 0 0 0 0 0 0 0 0 0 0 0 -1 -17 -38 -4 -16
0 0 0 0 0 0 0 0 0 0 0 0 0 0 0 0 0 0 0 0 0 0 -232 -56 0 -1 -1 0 0 0 -1 0 0 0 0 0 0 0 0 0 -1 0 0 0 0 -2 -27 -27 -40
0 0 0 0 0 0 0 0 0 0 0 0 0 0 0 0 0 0 0 0 0 0 -190 -58 -8 -7 -9 -2 -2 0 0 0 0 0 0 0 0 0 0 0 0 -11 -2 -4 0 -21 -35 -60 -38
0 0 0 0 0 0 0 0 0 0 0 0 0 0 0 0 0 0 0 0 0 0 -268 -42 -17 -19 -18 -7 -1 -1 -1 -1 -2 -4 -13 -15 -14 -11 -16 -19 -30 -17 -15 -6 -19 -36 -74 -57 -41
0 0 0 0 0 0 0 0 0 0 0 0 0 0 0 0 0 0 0 0 0 0 -33 -61 -28 -19 -16 -20 -14 -8 -12 -16 -29 -46 -80 -97 -94 -80 -59 -71 -74 -96 -96 -111 -117 -115 -98 -92 -86
0 0 0 0 0 0 0 0 0 0 0 0 0 0 0 0 0 0 0 0 0 0 -44 -80 -24 -23 -29 -27 -10 -3 -11 -25 -53 -41 -64 0 0 0 0 0 0 0 0 0 0 0 0 0 0
0 0 0 0 0 0 0 0 0 0 0 0 0 0 0 0 0 0 0 0 0 0 -29 -27 -23 -68 -52 -41 -24 -19 -43 -19 0 0 0 0 0 0 0 0 0 0 0 0 0 0 0 0 0
0 0 0 0 0 0 0 0 0 0 0 0 0 0 0 0 0 0 0 0 0 0 0 0 0 0 -20 -2 -65 -1 -1 0 0 0 0 0 0 0 0 0 0 0 0 0 0 0 0 0 0
0 0 0 0 0 0 0 0 0 0 0 0 0 0 0 0 0 0 0 0 0 0 0 0 0 0 0 0 0 -1 0 0 0 0 0 0 0 0 0 0 0 0 0 0 0 0 0 0 0
0 0 0 0 0 0 0 0 0 0 0 0 0 0 0 0 0 0 0 0 0 0 0 0 0 0 0 0 0 0 0 0 0 0 0 0 0 0 0 0 0 0 0 0 0 0 0 0 0
0 0 0 0 0 0 0 0 0 0 0 0 0 0 0 0 0 0 0 0 0 0 0 0 0 0 0 0 0 0 0 0 0 0 0 0 0 0 0 0 0 0 0 0 0 0 0 0 0
0 0 0 0 0 0 0 0 0 0 0 0 0 0 0 0 0 0 0 0 0 0 0 0 0 0 0 0 0 0 0 0 0 0 0 0 0 0 0 0 0 0 0 0 0 0 0 0 0
0 0 0 0 0 0 0 0 0 0 0 0 0 0 0 0 0 0 0 0 0 0 0 0 0 0 0 0 0 0 0 0 0 0 0 0 0 0 0 0 0 0 0 0 0 0 0 0 0
0 0 0 0 0 0 0 0 0 0 0 0 0 0 0 0 0 0 0 0 0 0 0 0 0 0 0 0 0 0 0 0 0 0 0 0 0 0 0 0 0 0 0 0 0 0 0 0 0
0 0 0 0 0 0 0 0 0 0 0 0 0 0 0 0 0 0 0 0 0 0 0 0 0 0 0 0 0 0 0 0 0 0 0 0 0 0 0 0 0 0 0 0 0 0 0 0 0
0 0 0 0 0 0 0 0 0 0 0 0 0 0 0 0 0 0 0 0 0 0 0 0 0 0 0 0 0 0 0 0 0 0 0 0 0 0 0 0 0 0 0 0 0 0 0 0 0
0 0 0 0 0 0 0 0 0 0 0 0 0 0 0 0 0 0 0 0 0 0 0 0 0 0 0 0 0 0 0 0 0 0 0 0 0 0 0 0 0 0 0 0 0 0 0 0 0
0 0 0 0 0 0 0 0 0 0 0 0 0 0 0 0 0 0 0 0 0 0 0 0 0 0 0 0 0 0 0 0 0 0 0 0 0 0 0 0 0 0 0 0 0 0 0 0 0
0 0 0 0 0 0 0 0 0 0 0 0 0 0 0 0 0 0 0 0 0 0 0 0 0 0 0 0 0 0 0 0 0 0 0 0 0 0 0 0 0 0 0 0 0 0 0 0 0
0 0 0 0 0 0 0 0 0 0 0 0 0 0 0 0 0 0 0 0 0 0 0 0 0 0 0 0 0 0 0 0 0 0 0 0 0 0 0 0 0 0 0 0 0 0 0 0 0
0 0 0 0 0 0 0 0 0 0 0 0 0 0 0 0 0 0 0 0 0 0 0 0 0 0 0 0 0 0 0 0 0 0 0 0 0 0 0 0 0 0 0 0 0 0 0 0 0
0 0 0 0 0 0 0 0 0 0 0 0 0 0 0 0 0 0 0 0 0 0 0 0 0 0 0 0 0 0 0 0 0 0 0 0 0 0 0 0 0 0 0 0 0 0 0 0 0
0 0 0 0 0 0 0 0 0 0 0 0 0 0 0 0 0 0 0 0 0 0 0 0 0 0 0 0 0 0 0 0 0 0 0 0 0 0 0 0 0 0 0 0 0 0 0 0 0
0 0 0 0 0 0 0 0 0 0 0 0 0 0 0 0 0 0 0 0 0 0 0 0 0 0 0 0 0 0 0 0 0 0 0 0 0 0 0 0 0 0 0 0 0 0 0 0 0
0 0 0 0 0 0 0 0 0 0 0 0 0 0 0 0 0 0 0 0 0 0 0 0 0 0 0 0 0 0 0 0 0 0 0 0 0 0 0 0 0 0 0 0 0 0 0 0 0
0 0 -1 -1 0 0 0 0 0 0 0 0 0 0 0 0 0 0 0 0 0 0 0 0 0 0 0 0 0 0 0 0 0 0 0 0 0 0 0 0 0 0 0 0 0 0 0 0 0
0 0 0 0 0 0 0 0 0 0 0 0 0 0 0 0 0 0 0 0 0 0 0 0 0 0 0 0 0 0 0 0 0 0 0 0 0 0 0 0 0 0 0 0 0 0 0 0 0
0 0 0 0 0 0 0 0 0 0 0 0 0 0 0 0 0 0 0 0 0 0 0 0 0 0 0 0 0 0 0 0 0 0 0 0 0 0 0 0 0 0 0 0 0 0 0 0 0
0 0 0 0 0 0 0 0 0 0 0 0 0 0 0 0 0 0 0 0 0 0 0 0 0 0 0 0 0 0 0 0 0 0 0 0 0 0 0 0 0 0 0 0 0 0 0 0 0
0 0 0 0 0 0 0 0 0 0 0 0 0 0 0 0 0 0 0 0 0 0 0 0 0 0 0 0 0 0 0 0 0 0 0 0 0 0 0 0 0 0 0 0 0 0 0 0 0
Wind_Speed
5 6 4 5 4 5 4 9 3 5 3 3 1 3 5 4 2 6 3 5 12 10 6 9 17 19 20 19 18 18 18 20 19 20 20 20 17 16 17 18 17 17 15 16 17 14 20 17 16
5 5 5 3 5 3 7 6 9 11 7 3 3 3 1 2 2 6 5 7 14 8 4 7 18 20 20 20 17 16 17 21 20 21 22 22 22 20 18 18 19 19 18 16 17 16 18 16 15
5 3 5 5 5 8 7 8 11 6 7 5 5 3 2 5 2 7 3 10 10 7 6 8 19 20 21 20 18 16 18 19 19 21 21 21 21 20 21 20 20 18 16 16 17 16 15 15 14
3 4 4 4 11 9 9 5 3 2 2 2 3 5 4 3 5 5 8 10 10 6 6 13 19 19 19 19 19 17 17 19 19 19 20 20 20 19 19 19 17 17 17 16 16 14 14 15 16
4 3 1 4 12 7 7 4 2 3 3 5 7 6 5 3 3 8 9 10 10 6 5 10 18 18 19 19 18 18 18 18 18 19 19 19 19 19 18 17 17 16 16 16 16 15 15 14 16
3 3 2 8 9 3 6 9 5 5 6 3 2 8 4 2 5 7 8 7 7 8 5 8 15 18 19 18 17 18 19 20 19 19 20 20 19 19 17 17 16 15 16 16 15 16 16 15 16
7 5 6 5 7 7 6 7 7 9 10 9 5 7 2 4 6 8 9 7 7 6 6 5 8 13 16 17 16 17 19 21 21 21 21 19 18 17 16 15 14 14 15 15 15 15 15 15 16
5 4 5 6 10 13 5 3 4 7 8 2 4 8 6 7 7 9 8 7 7 5 5 6 6 7 8 8 16 18 21 23 24 23 21 19 16 15 15 14 14 14 14 15 15 15 15 15 16
4 3 6 7 9 7 3 1 3 2 2 5 5 2 2 17 12 10 7 5 6 4 4 8 9 10 11 14 18 23 25 25 23 20 19 13 6 7 7 13 14 14 14 14 14 14 14 15 16
6 5 11 5 12 5 1 4 2 3 4 2 4 6 12 16 14 14 10 9 8 6 7 9 11 13 13 10 12 11 11 8 9 10 9 5 6 5 6 10 13 14 14 14 14 13 12 9 4
6 12 12 10 6 3 5 5 1 1 3 7 9 11 12 12 11 13 11 10 7 5 6 9 12 12 13 9 7 5 4 5 7 10 7 5 4 5 4 4 4 4 10 4 6 6 4 6 5
5 9 20 3 10 2 4 2 4 6 6 1 8 20 15 14 14 14 14 10 11 8 9 8 10 11 10 7 6 6 5 5 6 6 7 5 3 4 4 3 4 4 3 5 5 4 5 7 7
7 15 8 15 14 8 8 10 8 6 11 7 14 14 17 16 14 9 9 7 8 9 9 8 8 10 10 9 7 7 7 5 7 6 6 4 4 4 4 4 4 4 4 4 4 5 5 6 7
4 16 19 12 12 9 8 11 8 8 6 8 14 15 14 15 16 10 12 12 12 12 11 11 10 8 10 9 9 7 6 6 6 5 5 5 4 4 4 4 4 4 3 3 4 5 5 5 6
6 11 9 5 6 7 7 8 11 15 9 10 13 13 13 14 14 19 19 18 17 13 14 12 11 10 10 10 8 7 6 6 5 5 7 7 5 5 4 4 4 3 3 6 5 5 5 6 6
3 2 4 7 8 6 8 13 7 10 7 11 10 10 14 14 18 11 13 14 14 14 15 14 11 11 10 10 7 7 6 6 5 5 5 7 6 6 5 4 3 3 4 4 4 4 5 5 5
3 5 6 4 7 5 9 7 7 8 8 10 8 8 9 9 10 12 14 15 14 14 15 14 13 13 12 10 8 8 8 6 5 5 5 6 6 6 5 4 3 4 4 4 4 4 4 5 5
9 5 5 6 5 6 7 7 6 4 4 6 7 7 3 9 12 13 15 14 14 13 13 13 12 13 11 9 9 7 6 5 4 5 5 6 5 5 5 4 4 4 4 4 4 5 4 3 5
3 4 7 2 5 3 6 9 12 2 8 8 7 7 6 5 5 9 13 14 13 11 13 14 14 13 10 8 8 6 5 4 4 4 6 5 5 5 5 4 4 4 5 4 5 3 5 3 2
10 10 14 6 9 8 9 10 5 7 4 5 6 7 7 4 8 11 13 12 13 13 12 14 14 14 10 8 4 4 5 3 4 4 5 5 5 5 5 5 5 5 4 5 3 2 3 2 3
13 14 10 12 5 6 3 4 4 5 7 7 7 5 6 6 10 11 12 10 12 12 13 13 14 14 11 11 9 7 6 5 3 3 4 2 5 5 6 5 5 5 4 4 3 3 4 3 3
12 9 13 9 5 6 4 5 2 4 5 7 6 7 8 7 9 11 11 10 10 8 10 12 13 12 11 12 10 14 7 8 3 4 3 4 5 6 5 5 5 5 4 5 3 2 2 3 3
6 2 5 2 4 4 4 1 2 8 3 1 4 5 7 7 7 9 9 10 9 10 10 10 10 9 8 8 10 9 9 5 5 4 7 6 5 6 6 6 6 5 4 5 5 5 6 3 2
6 5 5 4 2 2 11 9 4 4 4 3 2 2 4 6 8 8 7 9 8 6 8 9 11 7 8 8 8 11 11 11 8 6 5 4 4 4 5 6 5 5 5 5 4 5 7 5 5
1 5 1 2 0 6 2 6 1 4 2 3 6 4 2 3 6 7 7 7 6 8 7 8 10 7 7 9 9 10 11 11 11 9 7 6 4 3 4 5 5 4 4 5 5 5 6 4 4
6 4 5 8 6 4 1 5 2 3 2 5 4 4 4 4 4 5 6 6 6 7 7 8 8 7 8 9 8 8 9 7 7 7 6 4 4 4 4 5 5 5 5 5 5 4 4 5 4
2 3 2 3 1 2 4 3 2 2 4 3 3 3 4 4 4 5 5 5 6 6 6 8 8 6 7 8 8 7 7 9 8 8 6 4 5 5 6 6 5 5 5 5 5 4 4 4 4
1 2 3 3 5 4 1 4 4 6 6 5 4 4 1 3 3 3 4 4 4 4 5 6 7 8 6 7 7 7 8 9 9 9 8 7 6 5 6 6 5 5 4 4 5 4 3 5 2
3 3 2 1 1 4 4 3 2 6 7 9 7 5 5 4 5 5 5 5 5 5 5 6 6 7 6 6 7 9 7 8 8 8 8 8 6 7 6 5 5 4 4 4 4 4 4 4 4
3 1 2 3 2 2 1 2 1 5 6 5 6 6 6 6 6 6 5 5 5 5 5 5 5 6 6 6 7 8 9 9 9 8 8 7 7 5 5 6 5 4 3 4 4 4 4 3 3
Wind_Direction
184 95 75 48 68 65 252 251 252 251 250 206 47 150 193 80 139 200 295 156 140 155 181 146 137 125 121 116 115 113 113 107 106 106 104 101 109 113 118 112 106 101 100 93 90 85 84 78 69
131 106 52 89 107 177 249 234 222 230 218 105 86 113 273 126 108 137 116 180 147 155 137 132 135 129 124 117 112 111 113 109 108 109 104 101 97 97 101 102 103 100 93 93 91 85 83 75 67
98 67 105 147 175 204 220 213 228 255 208 186 155 57 91 157 346 164 195 157 138 137 133 143 137 131 126 122 120 117 114 112 109 101 99 97 96 94 92 86 94 106 109 107 98 92 83 80 72
129 18 17 146 224 243 206 195 195 104 329 265 153 111 81 274 176 177 129 135 127 137 135 152 139 134 131 131 127 123 118 107 104 103 100 98 98 96 94 91 93 91 94 93 90 85 77 86 83
49 72 199 239 246 247 236 224 188 203 272 225 165 194 123 301 90 111 119 129 122 121 140 143 138 142 140 136 133 130 122 120 114 110 107 103 100 96 98 97 95 94 93 91 87 86 84 81 81
113 121 149 234 251 288 263 252 155 216 223 262 167 131 171 301 119 137 119 114 120 121 108 135 144 145 138 135 133 134 131 122 115 112 109 105 104 103 101 98 95 96 96 93 91 86 85 86 82
152 141 209 208 255 272 226 231 203 236 235 229 157 139 204 241 155 129 111 102 92 96 107 110 129 139 136 133 132 133 126 118 111 106 101 100 100 102 100 98 96 94 95 97 94 92 93 89 87
148 138 209 221 240 269 223 217 261 175 239 96 127 180 204 210 134 102 94 89 90 84 103 115 112 105 109 121 122 115 111 108 103 94 90 87 89 99 104 98 99 97 94 93 96 97 99 95 85
137 190 205 228 173 232 274 117 284 121 122 52 7 73 237 128 129 110 104 92 99 88 131 113 109 101 105 104 105 101 101 98 93 85 83 72 61 48 66 98 99 101 102 103 96 91 89 94 96
176 212 217 222 218 235 135 182 226 147 149 46 46 21 118 133 144 142 154 153 148 145 129 126 120 116 108 106 104 102 104 101 100 99 89 79 83 85 71 83 90 87 88 90 88 86 79 69 51
207 229 235 252 258 228 263 313 276 200 228 203 189 162 154 155 160 158 161 165 153 137 127 136 124 124 120 117 107 99 94 103 100 106 109 101 81 70 50 55 41 44 74 59 69 61 51 47 43
244 224 235 279 234 267 258 230 246 191 234 48 168 165 156 170 176 172 170 164 153 151 137 125 129 123 111 110 108 109 104 106 113 111 111 110 96 86 83 76 81 71 60 74 68 71 71 66 58
237 243 248 243 248 249 276 261 239 220 239 99 127 160 179 181 181 169 157 149 152 145 143 124 125 125 121 113 114 111 112 113 115 114 118 116 110 107 101 89 75 80 87 89 83 75 76 68 63
241 234 255 251 253 244 226 252 158 241 223 181 154 185 188 189 181 155 162 159 168 153 146 138 131 130 126 127 124 115 112 112 103 107 115 113 115 114 102 91 86 71 68 81 93 95 87 82 84
246 269 266 238 234 237 195 247 227 241 197 223 189 187 192 198 173 184 178 173 167 159 148 145 134 128 126 128 115 113 118 101 98 103 107 109 103 103 103 99 84 80 77 82 73 69 73 73 69
280 253 216 205 199 230 168 245 234 244 187 228 227 194 190 183 189 178 172 162 166 153 154 147 141 132 130 126 118 110 104 98 90 86 88 96 101 104 98 93 90 91 84 92 86 85 74 73 66
234 235 214 294 211 201 185 255 239 228 191 236 266 218 190 153 165 170 167 161 159 153 151 146 138 137 124 115 106 104 100 97 96 92 92 99 104 103 106 100 99 100 85 81 103 64 87 90 80
216 221 227 190 220 197 229 254 271 178 134 65 35 19 137 174 181 159 157 154 150 148 148 144 136 133 122 113 106 92 90 88 92 91 93 99 100 101 101 100 100 102 98 87 84 100 61 98 104
207 234 233 249 231 225 244 248 230 81 54 63 42 26 27 91 124 135 140 140 137 138 141 145 135 132 128 125 121 115 117 116 101 95 107 105 109 107 106 100 96 90 101 120 121 99 101 71 122
231 246 253 263 264 197 242 238 80 51 57 49 30 21 17 78 110 120 132 138 146 140 137 138 137 136 132 130 110 107 123 85 92 91 90 107 108 107 111 111 106 103 101 99 105 106 102 73 5
234 235 249 243 262 214 159 297 154 54 73 54 24 357 16 58 113 117 119 125 127 134 139 135 137 137 133 128 112 101 94 92 84 72 73 73 106 98 103 99 98 94 92 97 85 108 122 134 32
247 228 230 224 180 235 150 264 258 111 77 47 16 12 17 44 77 104 114 112 124 121 123 130 136 136 135 137 133 145 143 143 141 124 119 100 103 98 97 99 97 94 91 89 80 86 103 117 130
230 183 181 174 173 129 198 148 216 133 148 33 356 9 27 35 71 84 99 121 122 125 130 130 126 122 125 127 138 137 132 114 119 107 107 97 87 95 94 98 96 87 78 73 73 65 66 57 90
148 84 41 55 96 240 202 187 246 186 177 167 192 79 64 61 71 74 74 103 104 103 116 131 131 131 134 128 133 137 134 136 133 130 118 112 95 87 89 88 86 84 83 82 78 78 76 77 78
145 123 167 328 213 239 199 176 147 334 339 136 150 134 82 65 89 95 97 103 117 129 132 133 135 136 137 132 133 138 141 145 140 139 136 133 118 103 111 104 96 91 94 90 88 78 76 70 81
199 208 176 202 194 220 166 203 222 258 339 71 91 124 113 92 101 105 113 116 128 137 138 134 140 129 136 136 136 137 136 137 136 134 133 125 121 124 114 99 98 97 92 87 85 85 88 84 80
133 260 37 103 143 92 144 83 34 60 70 74 115 99 109 116 116 125 116 119 120 133 138 140 130 124 132 132 132 132 128 134 137 131 125 124 123 126 119 114 110 103 96 93 92 85 82 82 76
139 143 151 213 193 198 112 149 170 179 161 146 155 162 191 157 142 123 117 115 99 115 123 108 127 140 135 126 128 137 144 137 136 134 133 134 131 114 122 120 118 115 113 109 105 97 94 95 81
163 179 189 59 141 156 140 248 146 166 173 168 170 174 176 174 166 157 154 148 134 117 125 128 128 121 120 124 123 128 125 126 129 131 131 129 123 131 130 127 123 119 119 119 116 120 119 110 96
91 86 159 168 214 71 73 241 112 156 140 135 142 150 149 165 168 148 133 132 125 124 114 137 134 135 142 135 126 129 127 128 124 129 125 126 127 116 118 110 136 153 152 146 143 145 135 133 125